weather.gov     
National Weather Service

Terminal Aerodrome Forecast
NWS Homepage
This page is being discontinued on March 12, 2014.
The same data is available at this site. Please update your bookmarks.
Thank you, and we apologize for the inconvenience.
Please send an email to SR-SRH.Webmaster@noaa.gov with any concerns.


Current Version
Previous Version:    01  02  03  04  05  06  07  08  09  10  11  12  13  14  15  16  17  18  19  20  21  22  23  24  25  26  27  28  29  30  
   31  32  33  34  35  36  37  38  39  40  41  42  
[Printable]
457
FTUS43 KILX 252000 AAD
TAFDEC
TAF AMD
KDEC 252050Z 2521/2618 19010G19KT P6SM VCSH SCT040 BKN100
      TEMPO 2521/2522 5SM -SHRA BR SCT025 BKN040
     FM252200 19010G16KT P6SM SCT045 BKN100
     FM260200 17008KT P6SM SCT050 BKN100
      TEMPO 2609/2613 5SM BR=


U.S. Dept. of Commerce
NOAA National Weather Service
1325 East West Highway
Silver Spring, MD 20910
E-mail: w-nws.webmaster@noaa.gov
Page last modified: May 16, 2007
NATIONAL WEATHER SERVICE: for Safety, for Work, for Fun - FOR LIFE